Regional Weather Roundup
Issued by NWS

Home | Current Version | Previous Version | Text Only | Print | Product List | Glossary On
Versions: 1 2 3 4 5 6 7 8 9 10 11 12 13 14 15 16 17 18 19 20 21 22 23 24 25 26 27
000
ASUS44 KLIX 270713
RWRLA
LOUISIANA WEATHER ROUNDUP
NATIONAL WEATHER SERVICE NEW ORLEANS LA
200 AM CDT THU JUL 27 2017

NOTE: "FAIR" INDICATES FEW OR NO CLOUDS BELOW 12,000 FEET WITH NO
      SIGNIFICANT WEATHER AND/OR OBSTRUCTIONS TO VISIBILITY.
      SKY/WX - SKY CONDITION AND SIGNIFICANT WEATHER.
      TMP - AIR TEMPERATURE.    DP   - DEWPOINT TEMPERATURE.
      RH  - RELATIVE HUMIDITY.  PRES - PRESSURE.
      HX  - HEAT INDEX.         WCI  - WIND CHILL INDEX.

*  THESE STATIONS ARE NOT NWS OR FAA STATIONS AND ARE NOT UNDER
   NWS QUALITY CONTROL.

LAZ040-048-061>063-065-066-069-270800-
SOUTHEAST LOUISIANA

CITY           SKY/WX    TMP DP  RH WIND       PRES   REMARKS
N.O. INTL ARPT PTCLDY    78  76  93 W5        30.04F
N.O. LAKEFRONT CLEAR     85  77  77 W8        30.04F HX  95
N.O. DOWNTOWN*   N/A     84  75  74 W3          N/A
RESERVE*       FAIR      79  76  92 CALM      30.05F
SLIDELL        CLEAR     76  74  93 CALM      30.04F
BATON ROUGE    CLEAR     76  74  93 CALM      30.05F
BOOTHVILLE     CLEAR     83  78  85 CALM      30.04F
BELLE CHASSE   NOT AVBL
BOGALUSA*      FAIR      76  73  88 CALM      30.06F
GALLIANO*      SUNNY     80  75  84 W5        30.04F
NEW ROADS*     FAIR      75  74  95 CALM      30.05F
GONZALES*      FAIR      77  75  94 NW3       30.04F
HAMMOND*       CLEAR     73  70  88 CALM      30.05F
HOUMA*         NOT AVBL
PORT FOURCHON* SUNNY     84  77  79 NW7       30.04F

$$

LAZ041-044-053-054-270800-
SOUTHWEST LOUISIANA

CITY           SKY/WX    TMP DP  RH WIND       PRES   REMARKS
LAKE CHARLES   CLEAR     77  75  93 CALM      30.05F
LAFAYETTE      CLEAR     80  77  90 W3        30.06F
PATTERSON      CLEAR     79  77  94 CALM      30.06F
SALT POINT       N/A     83  76  79 CALM      30.04F
NEW IBERIA     CLEAR     77  74  90 CALM      30.06F
CHENAULT AIRPK CLEAR     80  76  87 CALM      30.06F

$$

LAZ027-028-270800-
CENTRAL LOUISIANA

CITY           SKY/WX    TMP DP  RH WIND       PRES   REMARKS
FORT POLK      CLEAR     78  75  91 CALM      30.06F
ALEXANDRIA INT CLEAR     78  75  90 SW7       30.03F
ALEXANDRIA     CLEAR     74  74 100 CALM      30.05F

$$

LAZ001-002-270800-
NORTHWEST LOUISIANA

CITY           SKY/WX    TMP DP  RH WIND       PRES   REMARKS
SHREVEPORT     PTCLDY    80  76  87 SW7       30.03S
BARKSDALE AFB  CLEAR     83  73  72 SW10      30.02F
DTN SHREVEPORT CLEAR     84  74  71 SW9       30.03S

$$

LAZ014-016-270800-
NORTHEAST LOUISIANA

CITY           SKY/WX    TMP DP  RH WIND       PRES   REMARKS
MONROE         CLEAR     79  73  82 SW5       30.04F
TALLULAH       CLEAR     74  73  97 CALM      30.03F

$$





USA.gov is the U.S. government's official web portal to all federal, state and local government web resources and services.